Location: Houghton
(47.1220°N, 88.5690°W)
Time: 12:50:05
(UTC-04:00)

OTV 5 (USA 277) - Visible Passes

Search period start: 18 October 2017 00:00
Search period end: 28 October 2017 00:00
Orbit: 404 x 417 km, 43.0° (Epoch: 07 September)

Date Brightness Start Highest point End Pass type
(mag) Time Alt. Az. Time Alt. Az. Time Alt. Az.
18 Oct ? 21:00:18 10° WSW 21:03:06 26° SSW 21:03:06 26° SSW visible
19 Oct ? 20:09:11 10° WSW 20:12:12 31° SSW 20:14:27 15° SE visible
20 Oct ? 20:55:53 10° WSW 20:58:01 16° SSW 20:58:39 15° SSW visible
21 Oct ? 20:04:32 10° WSW 20:07:07 20° SSW 20:09:42 10° SSE visible
23 Oct ? 20:00:42 10° SW 20:01:54 11° SSW 20:03:06 10° S visible
